Regional Weather Roundup
Issued by NWS

Home | Current Version | Previous Version | Text Only | Print | Product List | Glossary On
Versions: 1 2 3 4 5 6 7 8 9 10 11 12 13 14 15 16 17 18 19 20 21 22 23 24 25 26 27 28 29 30 31 32 33 34 35 36 37 38 39 40 41 42 43 44 45 46 47 48 49 50
000
ASUS45 KSLC 280610
RWRUT

UTAH REGIONAL WEATHER ROUNDUP
NATIONAL WEATHER SERVICE SALT LAKE CITY UT
1200 AM MDT SAT MAY 28 2016

UTZ001>011-023>025-280700-

NORTHERN UTAH

CITY           SKY/WX    TMP DP  RH WIND       PRES   REMARKS
BRIGHAM CITY     N/A     51  44  78 CALM      29.97S
HILL AFB       PTCLDY    54  46  72 N3        29.98R
LOGAN          CLOUDY    49  46  90 CALM      29.98R
OGDEN          PTCLDY    53  46  77 N6        29.96R
PROVO AIRPORT  PTCLDY    55  36  47 N3        29.97S
SALT LAKE CITY CLOUDY    59  45  59 CALM      29.95F
VERNAL         CLOUDY    50  38  63 SW5       30.00R
WENDOVER       CLEAR     57  41  54 W6        29.97R
HEBER CITY     PTCLDY    43  37  81 E3        30.01S
WEST JORDAN    PTCLDY    52  45  76 SW3       29.98S

$$

UTZ012>022-026-027-280700-

SOUTHERN/CENTRAL UTAH

CITY           SKY/WX    TMP DP  RH WIND       PRES   REMARKS
BLANDING       PTCLDY    47  30  52 N9        30.07S
BRYCE CANYON   CLEAR     38  29  70 W8        30.11R WCI  32
CEDAR CITY     PTCLDY    52  32  46 S6        29.98R
DELTA          PTCLDY    54  39  58 NE8       29.95S
HANKSVILLE     CLEAR     55  36  47 NW6       29.97S
MILFORD        CLEAR     54  33  45 CALM      29.94S
MOAB/CYNLANDS  CLEAR     60  37  42 NE8       29.93S
PRICE          PTCLDY    50  29  44 N8        30.01R
ST GEORGE      PTCLDY    72  30  21 CALM      29.86S
KANAB          MOCLDY    59  34  38 N8        30.00S

$$

REGIONAL REPORTS     COLORADO/ARIZONA

CITY           SKY/WX    TMP DP  RH WIND       PRES   REMARKS
CRAIG, CO      CLOUDY    44  40  85 SE6       30.07R
GRAND JUNCTION CLEAR     49  45  86 NE8       29.98S
RIFLE          CLOUDY    44  36  73 E8        30.03F
MONTROSE       CLOUDY    51  35  54 SE3       30.06R
CORTEZ         CLOUDY    50  34  54 SE9       30.03R
PAGE, AZ       PTCLDY    66  32  28 W5        29.92R
GRAND CANYON   CLEAR     39  24  55 CALM      30.07S
KINGMAN        CLEAR     69  29  22 SW14      29.89S
FLAGSTAFF      PTCLDY    43  28  55 CALM      30.10R

$$

REGIONAL REPORTS    NEVADA/IDAHO/WYOMING

CITY           SKY/WX    TMP DP  RH WIND       PRES   REMARKS
LAS VEGAS, NV  CLEAR     81  25  12 SW5       29.75R
ELY            PTCLDY    47  33  58 W9        30.02S
ELKO           MOCLDY    53  37  54 E7        30.00R
POCATELLO, ID  CLEAR     51  30  44 S13       29.97S
BURLEY         CLEAR     50  31  48 W14       29.96S
EVANSTON, WY   CLOUDY    48  35  60 E3        30.06R
ROCK SPRINGS   CLOUDY    45  36  70 SW9       30.02S
KEMMERER         N/A     43  34  70 W6        30.05F

$$



USA.gov is the U.S. government's official web portal to all federal, state and local government web resources and services.